Location: Crescent
(42.8242°N, 73.7329°W)
Time: 21:53:55
(UTC+00:00)

Vanguard 2 Rocket - Pass Details

Date: 24 February 2026
Orbit: 553 x 3287 km, 32.9° (Epoch: 7 March)

Event Time Altitude Azimuth Distance (km) Brightness Sun altitude
Rises 15:27:04 0° 235° (SW) 6,853 11.4 33.0°
Reaches altitude 10° 15:31:34 10° 230° (SW) 6,027 11.3 33.4°
Maximum altitude 15:50:18 52° 162° (SSE) 3,710 11.8 34.9°
Drops below altitude 10° 16:06:29 10° 93° (E) 5,296 11.1 36.0°
Sets 16:10:07 0° 88° (E) 6,009 11.3 36.2°
